Time,TemperatureF,DewpointF,PressureIn,WindDirection,WindDirectionDegrees,WindSpeedMPH,WindSpeedGustMPH,Humidity,HourlyPrecipIn,Conditions,Clouds,dailyrainin,SoftwareType,DateUTC
2013-08-19 00:13:00,65.0,62.0,30.13,South,175,0.0,0.0,91,0.00,,,0.00,weatherlink.com 1.10,2013-08-19 04:13:00,
2013-08-19 00:28:00,64.8,63.0,30.12,South,175,0.0,0.0,92,0.00,,,0.00,weatherlink.com 1.10,2013-08-19 04:28:00,
2013-08-19 00:43:00,64.4,62.0,30.12,South,175,0.0,0.0,92,0.00,,,0.00,weatherlink.com 1.10,2013-08-19 04:43:00,
2013-08-19 00:58:00,64.3,62.0,30.12,South,175,0.0,0.0,92,0.00,,,0.00,weatherlink.com 1.10,2013-08-19 04:58:00,
2013-08-19 01:13:00,64.1,62.0,30.12,South,175,0.0,0.0,93,0.00,,,0.00,weatherlink.com 1.10,2013-08-19 05:13:00,
2013-08-19 01:28:00,64.1,62.0,30.12,South,175,0.0,1.0,93,0.00,,,0.00,weatherlink.com 1.10,2013-08-19 05:28:00,
2013-08-19 01:43:00,63.7,62.0,30.12,South,175,0.0,1.0,93,0.00,,,0.00,weatherlink.com 1.10,2013-08-19 05:43:00,
2013-08-19 01:58:00,63.4,61.0,30.11,South,175,0.0,0.0,93,0.00,,,0.00,weatherlink.com 1.10,2013-08-19 05:58:00,
2013-08-19 02:13:00,63.4,61.0,30.11,South,175,0.0,0.0,93,0.00,,,0.00,weatherlink.com 1.10,2013-08-19 06:13:00,
2013-08-19 02:29:00,63.1,61.0,30.11,South,175,0.0,0.0,94,0.00,,,0.00,weatherlink.com 1.10,2013-08-19 06:29:00,
2013-08-19 02:44:00,63.0,61.0,30.11,South,175,0.0,0.0,94,0.00,,,0.00,weatherlink.com 1.10,2013-08-19 06:44:00,
2013-08-19 02:59:00,63.0,61.0,30.11,South,175,0.0,0.0,94,0.00,,,0.00,weatherlink.com 1.10,2013-08-19 06:59:00,
2013-08-19 03:14:00,63.0,61.0,30.11,South,175,0.0,0.0,94,0.00,,,0.00,weatherlink.com 1.10,2013-08-19 07:14:00,
2013-08-19 03:29:00,62.6,61.0,30.10,South,175,0.0,0.0,94,0.00,,,0.00,weatherlink.com 1.10,2013-08-19 07:29:00,
2013-08-19 03:44:00,62.4,61.0,30.11,South,175,0.0,1.0,94,0.00,,,0.00,weatherlink.com 1.10,2013-08-19 07:44:00,
2013-08-19 03:59:00,62.1,60.0,30.10,South,175,0.0,0.0,94,0.00,,,0.00,weatherlink.com 1.10,2013-08-19 07:59:00,
2013-08-19 04:14:00,62.3,61.0,30.10,South,175,0.0,1.0,95,0.00,,,0.00,weatherlink.com 1.10,2013-08-19 08:14:00,
2013-08-19 04:29:00,62.1,60.0,30.10,South,175,0.0,0.0,94,0.00,,,0.00,weatherlink.com 1.10,2013-08-19 08:29:00,
2013-08-19 04:44:00,61.9,61.0,30.09,South,175,0.0,0.0,95,0.00,,,0.00,weatherlink.com 1.10,2013-08-19 08:44:00,
2013-08-19 04:59:00,62.0,61.0,30.10,South,175,0.0,1.0,95,0.00,,,0.00,weatherlink.com 1.10,2013-08-19 08:59:00,
2013-08-19 05:14:00,61.9,61.0,30.09,South,175,0.0,1.0,95,0.00,,,0.00,weatherlink.com 1.10,2013-08-19 09:14:00,
2013-08-19 05:29:00,61.9,61.0,30.10,South,175,0.0,0.0,95,0.00,,,0.00,weatherlink.com 1.10,2013-08-19 09:29:00,
2013-08-19 05:44:00,62.0,61.0,30.09,South,175,0.0,0.0,95,0.00,,,0.00,weatherlink.com 1.10,2013-08-19 09:44:00,
2013-08-19 05:59:00,62.4,61.0,30.10,South,175,0.0,2.0,95,0.00,,,0.00,weatherlink.com 1.10,2013-08-19 09:59:00,
2013-08-19 06:14:00,62.8,61.0,30.09,South,175,0.0,0.0,95,0.00,,,0.00,weatherlink.com 1.10,2013-08-19 10:14:00,
2013-08-19 06:29:00,62.9,61.0,30.10,South,175,0.0,1.0,94,0.00,,,0.00,weatherlink.com 1.10,2013-08-19 10:29:00,
2013-08-19 06:44:00,62.7,61.0,30.10,South,175,0.0,1.0,94,0.00,,,0.00,weatherlink.com 1.10,2013-08-19 10:44:00,
2013-08-19 06:59:00,62.8,61.0,30.10,South,175,0.0,0.0,94,0.00,,,0.00,weatherlink.com 1.10,2013-08-19 10:59:00,
2013-08-19 07:14:00,62.7,61.0,30.10,South,175,0.0,1.0,94,0.00,,,0.00,weatherlink.com 1.10,2013-08-19 11:14:00,
2013-08-19 07:29:00,63.2,62.0,30.10,South,175,0.0,1.0,94,0.00,,,0.00,weatherlink.com 1.10,2013-08-19 11:29:00,
2013-08-19 07:43:00,63.6,62.0,30.10,South,175,0.0,2.0,94,0.00,,,0.00,weatherlink.com 1.10,2013-08-19 11:43:00,
2013-08-19 07:59:00,65.0,63.0,30.10,South,175,0.0,1.0,92,0.00,,,0.00,weatherlink.com 1.10,2013-08-19 11:59:00,
2013-08-19 08:14:00,65.6,63.0,30.10,South,175,0.0,1.0,91,0.00,,,0.00,weatherlink.com 1.10,2013-08-19 12:14:00,
2013-08-19 08:29:00,66.1,63.0,30.11,South,175,1.0,1.0,90,0.00,,,0.00,weatherlink.com 1.10,2013-08-19 12:29:00,
2013-08-19 08:44:00,66.2,63.0,30.10,SSW,195,1.0,3.0,90,0.00,,,0.00,weatherlink.com 1.10,2013-08-19 12:44:00,
2013-08-19 09:01:00,67.5,64.0,30.10,SSW,198,1.0,4.0,88,0.00,,,0.00,weatherlink.com 1.10,2013-08-19 13:01:00,
2013-08-19 09:15:00,67.8,64.0,30.10,North,354,1.0,4.0,87,0.00,,,0.00,weatherlink.com 1.10,2013-08-19 13:15:00,
2013-08-19 09:30:00,68.7,64.0,30.10,North,11,1.0,3.0,85,0.00,,,0.00,weatherlink.com 1.10,2013-08-19 13:30:00,
2013-08-19 09:45:00,70.0,65.0,30.09,NNE,17,0.0,2.0,83,0.00,,,0.00,weatherlink.com 1.10,2013-08-19 13:45:00,
2013-08-19 10:00:00,70.7,64.0,30.09,South,184,2.0,3.0,80,0.00,,,0.00,weatherlink.com 1.10,2013-08-19 14:00:00,
2013-08-19 10:15:00,70.7,63.0,30.09,WSW,237,1.0,5.0,77,0.00,,,0.00,weatherlink.com 1.10,2013-08-19 14:15:00,
2013-08-19 10:30:00,70.7,64.0,30.09,SSW,198,2.0,7.0,78,0.00,,,0.00,weatherlink.com 1.10,2013-08-19 14:30:00,
2013-08-19 10:45:00,71.1,64.0,30.09,South,186,0.0,4.0,79,0.00,,,0.00,weatherlink.com 1.10,2013-08-19 14:45:00,
2013-08-19 11:00:00,71.6,64.0,30.08,South,181,2.0,6.0,77,0.00,,,0.00,weatherlink.com 1.10,2013-08-19 15:00:00,
2013-08-19 11:15:00,71.8,64.0,30.08,South,188,0.0,5.0,76,0.00,,,0.00,weatherlink.com 1.10,2013-08-19 15:15:00,
2013-08-19 11:30:00,72.6,65.0,30.07,South,186,0.0,2.0,77,0.00,,,0.00,weatherlink.com 1.10,2013-08-19 15:30:00,
2013-08-19 11:46:00,73.1,65.0,30.07,NNE,14,0.0,4.0,76,0.00,,,0.00,weatherlink.com 1.10,2013-08-19 15:46:00,
2013-08-19 12:01:00,72.3,64.0,30.07,South,186,2.0,4.0,76,0.00,,,0.00,weatherlink.com 1.10,2013-08-19 16:01:00,
2013-08-19 12:16:00,73.1,65.0,30.07,West,278,0.0,2.0,76,0.00,,,0.00,weatherlink.com 1.10,2013-08-19 16:16:00,
2013-08-19 12:31:00,72.6,65.0,30.07,South,182,2.0,4.0,76,0.00,,,0.00,weatherlink.com 1.10,2013-08-19 16:31:00,
2013-08-19 12:46:00,73.4,65.0,30.07,North,359,0.0,3.0,75,0.00,,,0.00,weatherlink.com 1.10,2013-08-19 16:46:00,
2013-08-19 13:01:00,73.7,65.0,30.07,NNE,20,1.0,5.0,74,0.00,,,0.00,weatherlink.com 1.10,2013-08-19 17:01:00,
2013-08-19 13:16:00,74.1,65.0,30.07,South,184,1.0,4.0,73,0.00,,,0.00,weatherlink.com 1.10,2013-08-19 17:16:00,
2013-08-19 13:31:00,73.8,65.0,30.06,South,187,0.0,4.0,75,0.00,,,0.00,weatherlink.com 1.10,2013-08-19 17:31:00,
2013-08-19 13:46:00,74.4,65.0,30.07,North,2,3.0,5.0,73,0.00,,,0.00,weatherlink.com 1.10,2013-08-19 17:46:00,
2013-08-19 14:01:00,74.9,65.0,30.06,SSW,193,4.0,6.0,72,0.00,,,0.00,weatherlink.com 1.10,2013-08-19 18:01:00,
2013-08-19 14:16:00,75.3,66.0,30.06,South,172,5.0,8.0,72,0.00,,,0.00,weatherlink.com 1.10,2013-08-19 18:16:00,
2013-08-19 14:31:00,75.3,66.0,30.05,SSW,205,2.0,5.0,73,0.00,,,0.00,weatherlink.com 1.10,2013-08-19 18:31:00,
2013-08-19 14:46:00,75.1,66.0,30.05,WSW,254,0.0,5.0,74,0.00,,,0.00,weatherlink.com 1.10,2013-08-19 18:46:00,
2013-08-19 15:01:00,74.8,66.0,30.05,SSW,202,1.0,8.0,74,0.00,,,0.00,weatherlink.com 1.10,2013-08-19 19:01:00,
2013-08-19 15:16:00,74.2,66.0,30.04,SSW,199,1.0,6.0,75,0.00,,,0.00,weatherlink.com 1.10,2013-08-19 19:16:00,
2013-08-19 15:31:00,73.9,66.0,30.03,SW,223,3.0,5.0,76,0.00,,,0.00,weatherlink.com 1.10,2013-08-19 19:31:00,
2013-08-19 15:46:00,74.5,66.0,30.03,South,173,1.0,5.0,75,0.00,,,0.00,weatherlink.com 1.10,2013-08-19 19:46:00,
2013-08-19 16:01:00,74.6,66.0,30.03,South,188,1.0,5.0,75,0.00,,,0.00,weatherlink.com 1.10,2013-08-19 20:01:00,
2013-08-19 16:16:00,74.4,66.0,30.03,North,3,2.0,4.0,76,0.00,,,0.00,weatherlink.com 1.10,2013-08-19 20:16:00,
2013-08-19 16:31:00,74.6,66.0,30.04,South,180,2.0,5.0,75,0.00,,,0.00,weatherlink.com 1.10,2013-08-19 20:31:00,
2013-08-19 16:46:00,73.9,66.0,30.04,WSW,242,1.0,6.0,77,0.00,,,0.00,weatherlink.com 1.10,2013-08-19 20:46:00,
2013-08-19 17:01:00,75.4,67.0,30.03,SSW,197,1.0,5.0,75,0.00,,,0.00,weatherlink.com 1.10,2013-08-19 21:01:00,
2013-08-19 17:16:00,75.4,67.0,30.03,SE,146,0.0,4.0,75,0.00,,,0.00,weatherlink.com 1.10,2013-08-19 21:16:00,
2013-08-19 17:31:00,75.7,67.0,30.03,South,186,1.0,6.0,74,0.00,,,0.00,weatherlink.com 1.10,2013-08-19 21:31:00,
2013-08-19 17:46:00,75.0,67.0,30.03,South,188,3.0,4.0,75,0.00,,,0.00,weatherlink.com 1.10,2013-08-19 21:46:00,
2013-08-19 18:01:00,74.5,67.0,30.03,SW,218,0.0,6.0,77,0.00,,,0.00,weatherlink.com 1.10,2013-08-19 22:01:00,
2013-08-19 18:31:00,74.0,67.0,30.02,South,178,0.0,3.0,78,0.00,,,0.00,weatherlink.com 1.10,2013-08-19 22:31:00,
2013-08-19 18:46:00,74.4,67.0,30.02,South,172,3.0,3.0,78,0.00,,,0.00,weatherlink.com 1.10,2013-08-19 22:46:00,
2013-08-19 19:01:00,73.6,66.0,30.02,SSW,200,2.0,3.0,78,0.00,,,0.00,weatherlink.com 1.10,2013-08-19 23:01:00,
2013-08-19 19:16:00,73.7,67.0,30.03,SSW,200,1.0,3.0,79,0.00,,,0.00,weatherlink.com 1.10,2013-08-19 23:16:00,
2013-08-19 19:31:00,73.6,67.0,30.03,SSW,192,1.0,5.0,79,0.00,,,0.00,weatherlink.com 1.10,2013-08-19 23:31:00,
2013-08-19 19:46:00,72.6,66.0,30.03,South,180,0.0,4.0,80,0.00,,,0.00,weatherlink.com 1.10,2013-08-19 23:46:00,
2013-08-19 20:01:00,72.4,67.0,30.03,South,180,0.0,1.0,82,0.00,,,0.00,weatherlink.com 1.10,2013-08-20 00:01:00,
2013-08-19 20:16:00,71.9,66.0,30.02,SSW,195,0.0,2.0,82,0.00,,,0.00,weatherlink.com 1.10,2013-08-20 00:16:00,
2013-08-19 20:31:00,70.9,66.0,30.02,SSW,203,1.0,5.0,84,0.00,,,0.00,weatherlink.com 1.10,2013-08-20 00:31:00,
2013-08-19 20:46:00,70.8,66.0,30.03,SW,222,1.0,4.0,85,0.00,,,0.00,weatherlink.com 1.10,2013-08-20 00:46:00,
2013-08-19 21:01:00,70.3,66.0,30.03,South,186,1.0,5.0,86,0.00,,,0.00,weatherlink.com 1.10,2013-08-20 01:01:00,
2013-08-19 21:16:00,70.2,66.0,30.04,South,188,0.0,2.0,87,0.00,,,0.00,weatherlink.com 1.10,2013-08-20 01:16:00,
2013-08-19 21:31:00,70.1,66.0,30.05,South,188,0.0,1.0,87,0.00,,,0.00,weatherlink.com 1.10,2013-08-20 01:31:00,
2013-08-19 21:46:00,70.0,66.0,30.05,South,188,0.0,1.0,86,0.00,,,0.00,weatherlink.com 1.10,2013-08-20 01:46:00,
2013-08-19 22:01:00,69.1,66.0,30.05,South,188,0.0,1.0,88,0.00,,,0.00,weatherlink.com 1.10,2013-08-20 02:01:00,
2013-08-19 22:16:00,69.0,66.0,30.05,South,188,0.0,1.0,89,0.00,,,0.00,weatherlink.com 1.10,2013-08-20 02:16:00,
2013-08-19 22:31:00,68.6,65.0,30.06,South,188,0.0,0.0,89,0.00,,,0.00,weatherlink.com 1.10,2013-08-20 02:31:00,
2013-08-19 22:46:00,68.3,65.0,30.06,South,188,0.0,0.0,90,0.00,,,0.00,weatherlink.com 1.10,2013-08-20 02:46:00,
2013-08-19 23:01:00,68.2,65.0,30.06,South,188,0.0,1.0,89,0.00,,,0.00,weatherlink.com 1.10,2013-08-20 03:01:00,
2013-08-19 23:16:00,67.8,66.0,30.06,South,188,0.0,0.0,92,0.00,,,0.00,weatherlink.com 1.10,2013-08-20 03:16:00,
2013-08-19 23:31:00,67.5,65.0,30.06,South,188,0.0,0.0,91,0.00,,,0.00,weatherlink.com 1.10,2013-08-20 03:31:00,
2013-08-19 23:46:00,66.8,65.0,30.06,South,188,0.0,0.0,92,0.00,,,0.00,weatherlink.com 1.10,2013-08-20 03:46:00,